This is the latest recevied weather packets stored in our database for station/object 4S6DRJ-13. If no packets are shown the sender has not sent any weather packets the latest 10 day(s).
| Time | Temp. | Humidity | Pressure | Rain* | Wind** | Luminosity | Snow |
|---|---|---|---|---|---|---|---|
| 1787708351 | 27.22° C | 88% | 1010.5 hPa | 0 mm | 1.79 m/s, 226° | 69 W/m² | - |
| 1787708290 | 27.22° C | 88% | 1010.5 hPa | 0 mm | 1.79 m/s, 200° | 65 W/m² | - |
| 1787708229 | 27.22° C | 88% | 1010.4 hPa | 0 mm | 0 m/s | 62 W/m² | - |
| 1787708168 | 27.22° C | 88% | 1010.4 hPa | 0 mm | 1.79 m/s, 217° | 63 W/m² | - |
| 1787708107 | 27.22° C | 88% | 1010.5 hPa | 0 mm | 1.79 m/s, 205° | 67 W/m² | - |
| 1787708046 | 27.22° C | 88% | 1010.5 hPa | 0 mm | 0 m/s | 72 W/m² | - |
| 1787707986 | 27.22° C | 88% | 1010.6 hPa | 0 mm | 0.89 m/s, 239° | 71 W/m² | - |
| 1787707924 | 27.22° C | 88% | 1010.6 hPa | 0 mm | 0.89 m/s, 230° | 70 W/m² | - |
| 1787707864 | 27.22° C | 88% | 1010.5 hPa | 0 mm | 0.45 m/s, 210° | 72 W/m² | - |
| 1787707802 | 27.22° C | 88% | 1010.3 hPa | 0 mm | 0.45 m/s, 151° | 74 W/m² | - |
| 1787707741 | 27.22° C | 88% | 1010.5 hPa | 0 mm | 0.89 m/s, 234° | 79 W/m² | - |
| 1787707680 | 27.22° C | 88% | 1010.4 hPa | 0 mm | 0.45 m/s, 235° | 82 W/m² | - |
| 1787707619 | 27.22° C | 89% | 1010.4 hPa | 0 mm | 0.45 m/s, 209° | 85 W/m² | - |
| 1787707558 | 27.22° C | 89% | 1010.4 hPa | 0 mm | 1.34 m/s, 167° | 85 W/m² | - |
| 1787707497 | 26.67° C | 89% | 1010.5 hPa | 0 mm | 1.34 m/s, 213° | 80 W/m² | - |
| 1787707436 | 26.67° C | 89% | 1010.4 hPa | 0 mm | 1.34 m/s, 142° | 75 W/m² | - |
| 1787707377 | 26.67° C | 89% | 1010.4 hPa | 0 mm | 0.89 m/s, 187° | 71 W/m² | - |
| 1787707314 | 26.67° C | 89% | 1010.4 hPa | 0 mm | 1.79 m/s, 210° | 65 W/m² | - |
| 1787707253 | 26.67° C | 89% | 1010.4 hPa | 0 mm | 1.79 m/s, 223° | 62 W/m² | - |
| 1787707192 | 26.67° C | 89% | 1010.3 hPa | 0 mm | 0.89 m/s, 177° | 59 W/m² | - |
| 1787707131 | 26.67° C | 89% | 1010.4 hPa | 0 mm | 0.89 m/s, 182° | 57 W/m² | - |
| 1787707070 | 26.67° C | 89% | 1010.3 hPa | 0 mm | 0.45 m/s, 214° | 54 W/m² | - |
| 1787707009 | 26.67° C | 89% | 1010.4 hPa | 0 mm | 0.89 m/s, 253° | 53 W/m² | - |
| 1787706948 | 26.67° C | 90% | 1010.3 hPa | 0 mm | 0.89 m/s, 230° | 51 W/m² | - |
| 1787706887 | 26.67° C | 89% | 1010.4 hPa | 0 mm | 0.89 m/s, 310° | 49 W/m² | - |
* Rain latest hour (hover to see other rain measurements)
** Current wind speed in m/s (hover to see current wind gust speed)